STARLINK-32336, 61004

Orbit data source: Space-Track

STARLINK-32336, 61004 is a payload satellite owned by SpaceX/Seattle (US) in LEO that was launched on Thu, 05 Sep 2024 UTC via an FALCON 9 launch vehicle from the Air Force Eastern Test Range (AFETR). Payload-class satellites include a variety of spacecraft equipped with specific instruments for various scientific and technological missions. These include communications satellites like Starlink; space stations such as the ISS; scientific satellites like the Hubble; Earth observation satellites from companies like Planet Labs, Umbra, and HawkEye 360; GPS; miniature CubeSats for education and research; and military/defense satellites.

Loading next visibility...
Identifier
61004, 2024-158Q
Orbit
LEO
Country
Flag of USUS
Related business
Manufacturer
SpaceX/Seattle
Mission
Operational Commercial Communications
Bus & Motor
STARLINK V2M, Unknown motor
Mass
730 kg wet, ~700 kg dry
Launch date (UTC)
2024-09-05 (1 year ago)
Launch vehicle
FALCON 9
Launch site
Air Force Eastern Test Range (AFETR)
Object type
Payload
Rocket body
Debris
Shape & HBR
Box + 2 Pan, 17.7 m
Radar Cross Section
33.884 m², Large (>1 m²)

Expand to show TLE details & history
Last TLE update: 23 hours ago

TLE from 23 hours ago
0 STARLINK-32336
1 61004U 24158Q   26033.23960276  .00001332  00000-0  57084-4 0  9997
2 61004  53.1595 230.1972 0001245 100.9292 259.1849 15.30196693 80223
Epoch: 2026-02-02T05:45Z
TLE epoch observation values (Epoch: 2026-02-02T05:45:01.678Z)
Latitude
-0.00001°
Longitude
11.50246°
Altitude
476.285 km
Speed
7.629 km/s
True Right ascension
15h 20m 47s
True Declination
0° 00' 00"
Sunlit
Object was in daylight at epoch
Visualization orbit readout
Latitude
Unknown
Longitude
Unknown
Altitude
Unknown
Speed
Unknown
Apparent Right ascension
Unknown
Apparent Declination
Unknown
Sunlit
N/A
Visualization observer readout
Local Sidereal Time
06:33:03
Azimuth
Unknown
Elevation
Unknown
Doppler factor
Unknown
Orbital elements
Apogee altitude
476.335 km
Perigee altitude
474.628 km
Semi-major axis
6,853.618 km
Eccentricity
0.00012
Inclination
53.1595°
RAAN
230.1972°
Arg. of periapsis
100.9292°
True anomaly
259.17089°
Mean anomaly
259.1849°
Eccentric anomaly
259.17789°
Mean motion
3.82528 °/min
Orbital period
94.11 mins
BSTAR
0.000057084
Loading maneuver chart data...
Computing Atmospheric mass density...
Loading historical data...
Loading historical data...
Loading historical data...
Loading historical data...
Loading historical data...
Loading historical data...
Loading historical data...

Documentation

Showing up to 5 results
|